Location: Boitzum
(52.1496°N, 9.6943°E)
Time: 20:36:50
(UTC+00:00)

IRS-1D - Pass Details

Date: 13 January 2026
Orbit: 737 x 810 km, 98.8° (Epoch: 15 February)

Event Time Altitude Azimuth Distance (km) Brightness Sun altitude
Rises 04:48:37 0° 15° (NNE) 3,323 6.9 -23.0°
Reaches altitude 10° 04:50:57 10° 15° (NNE) 2,396 6.1 -22.7°
Maximum altitude 04:56:17 84° 288° (WNW) 821 3.5 -21.9°
Drops below altitude 10° 05:01:35 10° 201° (SSW) 2,393 5.9 -21.1°
Sets 05:03:55 0° 200° (SSW) 3,318 6.7 -20.7°
